Kuiper-00111

operational
NORAD ID: 65149 Int'l Des: 2025-171 Owner: KUIP Country: US Constellation: kuiper
LEOCIRCULAR

Kuiper-00111について

説明を読み込み中...

リアルタイム位置

3D地球を読み込み中...

次回通過

高度履歴

Altitude vs Time

uPlot chart will show altitude changes over time

軌道要素

1 65149U 25171T 25350.26186791 .00005659 00000-0 77078-3 0 9993
2 65149 51.8954 181.9860 0008686 193.7849 166.2877 14.79916033 20328
Epoch: Dec 16, 2025 • Age: 18 hours

現在のステータス

高度 635.9 km
速度 7.54 km/s
衛星直下点 20.57°N, 106.34°E
打ち上げ日 Aug 11, 2025
運用期間 0.3 years
タイプ internet

技術仕様

分類 Payload
質量 490.00 kg
乾燥質量 490.00 kg
総質量 490.00 kg
長さ 1.80 m
直径 0.70 m
スパン 5.00 m
形状 Box + 2 pan
製造者 KUIP
バスタイプ Kuiper
フェーズステータス In Orbit
所有者/国 KUIP/US

大規模コンステレーション

Loading constellations...